Temperature
17 17 17 17 17 17 17 17 17 17 17 17 17 17 17 17 17 16 17 16 16 16 16 16 16 16 15 15 15 15 15 15 15 15 15 15 15 15 15 15 15 15 14
17 17 17 17 16 17 16 16 17 17 17 17 17 17 17 17 16 16 16 16 16 16 16 16 16 15 15 15 15 15 15 15 15 15 15 15 14 14 14 14 14 14 14
17 17 16 16 17 17 17 16 16 16 16 16 16 16 16 16 16 16 16 16 16 16 16 15 15 15 15 15 15 15 15 14 14 14 15 15 14 14 14 13 13 13 14
16 16 16 16 16 17 16 16 16 16 16 16 16 16 16 16 16 16 16 16 16 15 15 15 15 15 15 15 15 14 14 14 14 14 14 14 14 14 13 13 13 13 13
16 16 16 16 16 16 16 16 16 16 16 16 16 16 16 16 16 16 16 16 15 15 15 15 15 15 14 14 14 14 14 14 14 14 14 14 14 13 13 13 13 13 13
16 16 16 16 16 16 16 16 16 16 16 16 16 16 16 16 16 16 16 16 15 15 15 15 15 14 14 14 14 14 14 14 14 14 14 14 13 13 13 13 13 13 13
16 16 15 16 16 16 16 16 16 16 16 16 16 16 16 16 16 16 15 15 15 15 15 14 14 14 14 14 14 14 14 14 14 14 13 13 13 13 13 12 12 13 12
15 15 15 15 15 16 16 15 16 16 16 16 16 16 16 16 16 15 15 15 15 15 14 14 14 14 14 14 13 13 13 13 13 13 13 13 13 13 12 12 12 12 12
15 15 15 15 15 15 15 15 15 16 16 16 16 16 16 15 15 15 15 15 15 15 14 14 14 14 14 13 13 13 13 13 13 13 13 13 12 12 12 12 12 12 12
14 15 15 15 15 15 15 15 15 15 15 15 15 15 15 15 15 15 15 15 15 14 14 14 14 14 13 13 13 13 13 13 13 13 12 12 12 12 11 11 11 12 12
14 14 14 14 14 14 14 14 15 15 15 15 15 15 15 15 15 15 15 15 15 14 14 14 14 13 13 13 13 13 13 12 12 12 12 12 12 11 11 11 11 11 11
14 14 14 14 14 14 14 14 14 14 14 15 15 15 15 15 15 15 15 14 14 14 14 13 13 13 13 13 13 12 12 12 12 12 12 12 11 11 11 11 11 11 11
13 13 13 14 14 14 14 14 14 14 14 14 14 14 14 14 14 14 14 14 14 14 13 13 13 13 13 13 12 12 12 12 12 12 12 11 11 11 10 10 10 10 10
13 13 13 13 13 14 14 14 14 14 14 14 14 14 14 14 14 14 14 14 13 13 13 13 13 13 12 12 12 12 12 12 12 11 11 11 11 10 10 10 10 10 10
12 13 13 13 13 13 13 13 13 14 14 14 14 14 14 14 13 13 13 13 13 13 13 13 13 12 12 12 12 12 12 11 11 11 11 10 10 10 10 10 10 10 9
12 12 12 12 12 12 13 13 13 13 13 13 13 13 13 13 13 13 13 13 13 13 13 12 12 12 12 12 12 11 11 11 11 10 10 10 10 10 10 10 10 10 9
11 12 12 12 12 12 12 12 12 13 13 13 13 13 13 13 13 13 13 13 13 12 12 12 12 12 12 11 11 11 11 10 10 10 10 10 10 10 10 10 10 9 9
11 11 11 12 12 12 12 12 12 12 12 12 12 12 12 12 12 12 12 12 12 12 12 12 12 11 11 11 11 11 10 10 10 10 9 9 9 9 9 9 9 9 9
11 11 11 11 11 11 11 11 12 11 12 12 12 12 12 12 12 12 12 12 12 12 12 11 11 11 11 11 10 10 10 10 10 9 9 9 9 9 9 9 9 9 9
10 10 11 11 11 11 11 11 11 11 11 11 11 11 11 11 11 11 11 11 11 11 11 11 11 11 11 10 10 10 10 9 9 9 9 9 8 8 8 8 8 8 8
10 10 10 10 10 10 11 11 11 11 11 11 11 11 11 11 11 11 11 11 11 11 11 11 11 10 10 10 10 9 9 9 9 8 8 8 8 8 8 8 8 8 8
9 9 10 10 10 10 10 10 10 10 10 10 10 10 10 10 10 10 10 10 10 11 11 10 10 10 10 9 9 9 8 8 8 8 8 8 7 7 7 7 7 7 7
9 9 9 9 9 9 10 10 10 10 10 10 10 10 10 10 10 10 10 10 10 10 10 10 9 9 9 9 9 8 8 7 7 8 8 7 7 7 7 7 7 7 7
8 8 8 9 9 9 9 9 9 9 9 9 9 9 9 9 9 9 9 9 9 9 9 9 9 9 9 8 8 8 8 7 7 7 7 7 7 7 7 7 6 6 6
8 8 8 8 8 8 9 9 9 9 9 9 9 9 9 9 9 9 9 9 9 9 9 9 9 8 8 8 8 8 7 7 7 7 6 7 7 7 6 6 6 6 6
8 8 8 8 8 8 8 8 8 8 8 8 8 9 9 9 9 9 8 8 9 9 9 8 8 8 8 8 7 7 7 7 7 6 6 6 6 7 6 6 6 6 6
Wind_Speed
3 3 9 10 11 11 12 13 14 14 15 15 15 15 14 14 14 13 13 12 12 12 12 12 12 12 12 12 12 13 12 12 12 11 11 11 10 10 10 10 9 8 8
4 6 11 11 12 12 12 13 14 14 14 14 14 14 14 14 13 13 12 12 12 12 11 11 11 11 12 12 12 12 12 12 11 11 11 10 10 9 9 9 8 8 8
5 7 11 12 12 12 12 13 13 14 14 14 14 14 13 13 13 12 12 12 11 11 10 10 10 11 11 11 11 11 11 11 11 11 11 10 9 8 8 8 8 8 8
6 7 9 12 12 13 12 12 13 13 13 13 13 13 13 12 12 12 11 11 11 10 10 10 10 10 10 10 10 10 10 10 10 10 9 9 8 7 8 8 8 8 7
5 7 9 12 12 12 12 12 12 13 13 13 13 12 12 12 12 12 11 11 10 10 10 9 9 10 9 9 9 9 9 9 10 10 9 8 7 7 7 7 8 7 7
5 7 9 12 11 11 12 12 12 12 12 12 12 12 12 11 11 11 11 10 10 10 9 9 9 9 9 9 9 8 8 8 9 8 8 7 6 6 7 7 7 7 7
5 6 8 11 11 11 11 12 11 11 12 12 12 12 12 11 11 11 11 10 10 9 9 9 9 8 8 8 8 8 8 8 8 7 6 6 5 6 7 7 7 7 7
6 7 7 9 9 10 10 11 11 11 11 11 11 11 11 11 11 10 10 10 9 9 9 8 8 8 8 8 8 8 9 8 7 6 6 6 6 6 7 7 7 7 7
7 7 7 7 8 9 9 10 10 10 10 10 11 11 11 11 10 10 9 9 8 8 8 8 8 8 8 8 8 8 8 8 8 6 5 5 6 6 6 6 6 7 7
6 6 7 8 8 8 8 9 9 10 10 10 10 10 10 10 10 9 9 8 8 8 8 8 8 8 8 8 8 8 8 8 7 6 5 4 6 6 6 6 6 6 6
5 5 6 6 8 7 7 7 8 8 9 9 9 9 10 9 9 8 8 8 8 7 7 7 8 8 8 8 8 8 8 7 6 5 4 5 6 6 6 6 6 6 7
3 3 4 5 6 6 6 7 7 7 7 8 8 8 8 8 8 7 7 8 7 7 7 7 8 8 8 7 7 7 6 6 5 4 4 6 6 6 6 6 6 6 7
3 3 3 4 5 5 5 5 5 6 6 7 7 7 8 8 7 6 6 6 6 6 6 6 7 6 6 6 5 5 5 5 5 4 5 6 6 6 7 7 7 7 7
3 3 2 3 4 5 5 4 4 4 5 4 5 6 6 5 4 4 4 4 5 4 5 5 4 5 5 5 5 5 5 4 4 4 5 7 7 7 7 7 8 8 8
3 3 2 3 3 4 4 3 3 3 4 4 5 5 6 4 3 3 3 4 4 4 4 3 3 3 3 4 4 4 4 4 4 4 5 7 7 7 7 8 8 8 8
2 2 2 3 3 4 3 2 2 3 4 5 4 4 5 5 4 3 2 3 3 3 3 3 2 2 2 3 3 3 3 3 4 4 5 6 7 8 8 8 9 9 9
2 2 2 3 3 3 3 2 3 3 4 4 4 4 5 5 4 3 2 2 2 3 4 4 3 3 2 3 2 3 3 3 4 4 5 5 6 7 8 9 10 10 10
2 2 2 2 3 3 3 3 3 3 4 4 4 4 4 4 4 4 3 2 2 4 3 2 2 2 2 2 2 2 2 3 3 4 5 5 6 6 7 9 10 11 11
2 3 3 3 3 3 3 3 4 4 4 4 5 4 4 4 5 4 3 2 3 3 2 2 2 2 1 2 2 2 2 2 2 3 4 5 6 6 7 8 9 10 10
2 3 3 3 3 3 3 3 3 4 4 4 4 4 4 4 4 4 3 2 3 2 2 2 2 2 1 1 2 2 2 2 2 2 3 4 5 6 7 7 8 8 10
3 3 3 3 3 3 2 2 2 1 1 2 3 3 4 4 3 3 2 2 2 2 2 2 2 2 2 2 2 2 3 3 2 2 2 3 4 6 7 7 7 7 8
2 2 2 2 2 2 1 1 1 1 0 1 2 3 3 3 3 3 2 2 2 2 2 2 2 2 1 2 2 2 2 3 2 2 2 2 3 4 5 7 7 7 8
1 1 1 1 2 2 2 3 3 2 2 1 2 1 2 2 3 3 3 2 2 2 2 1 2 2 2 0 1 2 2 1 2 2 2 2 3 3 3 5 6 7 7
1 1 1 2 2 2 3 3 4 2 1 1 1 0 1 2 3 3 3 3 2 2 2 1 1 1 3 1 0 1 1 2 1 2 2 2 3 3 3 4 5 6 7
0 1 1 2 2 2 2 2 3 2 1 1 1 1 1 2 3 3 2 2 2 1 1 2 1 1 2 2 1 1 1 1 1 1 3 4 3 3 3 3 4 5 6
2 2 2 2 2 1 2 2 2 2 2 2 2 1 0 0 1 3 2 2 1 1 1 1 2 2 2 2 1 1 1 1 1 1 2 3 4 4 4 3 3 4 5
Wind_Direction
167 167 149 146 140 133 129 125 121 116 116 115 114 112 111 109 107 102 99 95 91 89 86 85 85 84 83 80 78 75 73 71 69 67 64 63 62 62 60 57 53 52 52
148 151 148 147 142 136 131 128 123 120 118 117 116 115 113 111 108 104 100 96 93 91 88 87 84 84 83 81 79 77 75 72 69 64 60 59 59 61 60 57 54 56 52
129 136 143 146 143 138 134 131 127 124 122 120 119 117 115 113 110 107 103 98 95 93 91 89 87 86 85 83 81 79 76 73 70 65 57 49 50 57 55 53 54 52 48
125 132 135 138 141 139 136 132 131 127 125 123 121 119 118 117 114 110 106 101 98 94 92 91 89 87 86 84 82 80 77 72 69 64 54 45 44 52 50 49 48 44 44
108 118 134 133 133 137 136 134 130 130 127 124 123 123 122 121 117 113 108 104 100 96 93 91 90 89 86 85 83 81 78 74 68 62 52 42 36 44 46 48 42 39 42
94 105 126 130 130 132 132 133 131 128 128 126 126 125 124 122 119 114 110 105 101 97 95 93 90 89 86 85 82 80 79 74 67 58 45 33 27 40 47 48 44 39 36
96 90 119 129 130 129 132 130 129 128 126 128 128 126 123 120 116 112 108 104 100 97 94 93 91 91 88 87 84 81 78 74 65 54 39 26 25 40 45 42 41 37 33
101 86 100 121 127 128 127 130 126 124 126 128 129 127 123 121 118 114 110 106 103 99 96 94 92 90 87 85 84 82 78 73 67 54 39 28 36 43 42 41 38 33 29
86 81 77 91 109 118 121 120 123 122 122 124 128 127 124 121 120 116 112 110 106 101 97 94 92 88 84 83 82 81 77 72 67 54 41 27 32 36 36 33 27 22 21
76 72 68 73 84 94 100 110 112 118 119 118 122 125 122 120 118 116 113 111 108 102 97 93 91 87 82 81 81 80 76 70 59 47 34 29 30 32 30 25 19 12 7
74 66 66 67 71 82 93 102 105 111 115 114 113 119 116 110 110 111 112 112 109 101 95 92 89 85 80 74 78 78 71 64 54 41 26 29 28 26 21 15 9 2 359
96 73 67 70 73 75 89 90 90 94 102 107 108 111 111 110 109 109 111 110 106 98 92 87 86 81 72 67 70 73 66 60 52 33 23 29 27 23 18 14 9 360 352
132 94 72 68 77 80 82 88 84 86 88 97 106 111 110 103 102 100 97 95 92 89 77 75 71 68 68 68 69 69 67 61 48 35 23 28 24 17 12 7 3 359 353
116 98 82 63 68 75 85 91 94 91 89 89 105 115 110 100 94 95 91 88 85 83 75 70 67 63 65 69 75 72 68 62 50 39 25 26 23 17 9 2 357 354 352
119 102 94 78 72 72 81 85 101 102 105 107 107 118 118 111 116 107 97 93 86 85 79 70 66 63 60 59 64 70 65 59 53 46 32 27 24 15 5 359 353 348 348
123 118 105 100 80 77 78 81 104 113 109 105 104 115 120 114 111 109 107 97 83 86 87 83 81 73 65 64 58 61 66 62 55 47 38 31 27 19 7 357 350 348 347
138 117 110 105 79 82 78 83 88 107 108 103 99 107 112 112 115 109 102 103 89 90 86 77 69 69 68 62 52 52 60 57 52 44 37 31 26 18 9 1 356 353 352
113 110 109 93 87 82 72 75 79 86 96 93 90 90 96 103 108 106 99 98 96 96 92 99 89 73 60 55 45 33 44 48 46 40 38 32 28 19 9 4 1 357 355
116 117 99 90 94 83 69 71 77 71 75 77 83 82 82 91 100 99 98 94 99 94 93 104 101 100 90 60 51 39 29 36 27 35 35 34 30 21 12 5 5 2 360
82 95 91 84 86 81 74 66 68 61 57 62 66 74 87 86 96 99 90 84 91 96 96 99 108 80 97 84 66 38 16 15 23 26 25 31 27 19 14 10 7 3 2
62 70 78 74 80 91 89 91 91 69 49 60 47 59 78 80 87 97 102 104 101 120 131 124 121 98 56 52 61 24 8 18 28 15 19 24 18 14 13 11 7 3 359
81 85 84 78 74 89 101 119 110 115 84 69 42 40 55 76 84 88 88 125 124 114 90 95 107 105 65 57 85 77 10 350 3 7 6 17 11 9 7 3 360 358 355
88 118 113 93 74 55 60 81 78 67 39 31 31 8 11 52 79 89 90 88 105 121 131 115 123 118 130 56 79 108 113 248 310 322 340 355 354 355 347 344 347 347 349
209 107 100 95 83 68 79 95 107 108 117 271 252 266 13 47 54 67 89 96 104 118 137 153 123 135 139 162 107 60 135 165 179 306 311 323 333 331 329 330 329 330 336
129 104 93 82 77 78 83 97 111 102 87 20 28 67 51 34 48 48 64 85 87 104 144 152 157 148 163 173 169 132 81 62 155 207 289 311 316 298 304 302 307 315 324
68 76 77 81 65 67 89 89 98 113 92 69 30 33 67 35 34 32 37 49 64 72 171 180 179 175 184 183 173 162 165 172 215 216 271 298 302 299 302 293 295 304 315
Height
1512 1514 1516 1518 1520 1521 1523 1524 1525 1527 1528 1529 1530 1530 1531 1532 1532 1533 1533 1534 1534 1535 1535 1535 1535 1535 1535 1535 1535 1536 1536 1536 1536 1536 1536 1536 1536 1536 1536 1536 1536 1536 1536
1510 1513 1515 1517 1520 1521 1523 1524 1526 1527 1528 1529 1530 1531 1532 1532 1533 1533 1534 1534 1535 1535 1535 1535 1536 1536 1536 1536 1536 1536 1536 1536 1536 1536 1536 1536 1536 1536 1536 1536 1536 1535 1535
1510 1512 1515 1517 1519 1521 1523 1525 1526 1527 1529 1530 1531 1531 1532 1533 1533 1534 1534 1535 1535 1535 1536 1536 1536 1536 1536 1536 1536 1536 1536 1536 1536 1536 1536 1536 1536 1536 1536 1535 1535 1535 1535
1510 1512 1514 1517 1519 1521 1523 1525 1526 1528 1529 1530 1531 1532 1532 1533 1534 1534 1534 1535 1535 1535 1536 1536 1536 1536 1536 1536 1536 1536 1536 1536 1536 1536 1536 1536 1536 1536 1535 1535 1535 1535 1534
1511 1513 1515 1517 1519 1521 1523 1525 1526 1528 1529 1530 1531 1532 1533 1533 1534 1534 1534 1535 1535 1535 1536 1536 1536 1536 1536 1536 1536 1536 1536 1536 1536 1536 1536 1535 1535 1535 1535 1535 1534 1534 1534
1511 1513 1515 1517 1519 1521 1523 1524 1526 1528 1529 1530 1531 1532 1533 1533 1534 1534 1535 1535 1535 1535 1536 1536 1536 1536 1536 1536 1536 1536 1536 1536 1536 1536 1535 1535 1535 1535 1535 1534 1534 1534 1533
1511 1513 1515 1517 1519 1521 1523 1524 1526 1527 1529 1530 1531 1532 1533 1533 1534 1534 1535 1535 1535 1535 1536 1536 1536 1536 1536 1536 1536 1536 1536 1536 1535 1535 1535 1535 1535 1535 1534 1534 1533 1533 1532
1511 1513 1515 1517 1519 1521 1522 1524 1526 1527 1528 1530 1531 1532 1532 1533 1534 1534 1535 1535 1535 1535 1535 1536 1536 1536 1536 1536 1536 1536 1535 1535 1535 1535 1535 1534 1534 1534 1534 1533 1533 1532 1531
1512 1513 1515 1517 1519 1521 1522 1524 1525 1527 1528 1529 1530 1531 1532 1533 1533 1534 1534 1535 1535 1535 1535 1535 1535 1535 1535 1535 1535 1535 1535 1535 1535 1535 1534 1534 1534 1534 1533 1533 1532 1531 1530
1512 1513 1515 1517 1519 1520 1522 1523 1525 1526 1528 1529 1530 1531 1531 1532 1533 1534 1534 1534 1534 1534 1534 1535 1535 1535 1535 1535 1535 1535 1535 1535 1534 1534 1534 1533 1533 1533 1533 1532 1531 1530 1529
1512 1513 1515 1516 1518 1520 1521 1522 1524 1526 1527 1528 1529 1530 1531 1532 1532 1533 1533 1534 1534 1534 1534 1534 1534 1534 1535 1535 1535 1535 1534 1534 1534 1534 1533 1533 1533 1532 1532 1531 1530 1529 1528
1510 1512 1514 1516 1518 1519 1520 1522 1523 1525 1526 1527 1528 1529 1530 1531 1532 1532 1533 1533 1533 1534 1534 1534 1534 1534 1534 1534 1534 1534 1534 1534 1533 1533 1533 1532 1532 1531 1531 1530 1529 1528 1527
1510 1512 1513 1515 1517 1518 1520 1521 1522 1524 1525 1526 1528 1529 1529 1530 1531 1531 1532 1532 1533 1533 1533 1533 1533 1533 1533 1534 1534 1533 1533 1533 1533 1532 1532 1531 1531 1530 1530 1529 1528 1527 1526
1510 1511 1513 1514 1516 1517 1519 1520 1521 1522 1524 1525 1527 1528 1528 1529 1530 1530 1531 1531 1532 1532 1532 1532 1532 1533 1533 1533 1533 1533 1533 1532 1532 1532 1531 1531 1530 1529 1529 1528 1527 1526 1524
1509 1511 1512 1514 1515 1516 1518 1519 1520 1521 1522 1524 1525 1526 1527 1528 1529 1529 1530 1530 1531 1531 1531 1532 1532 1532 1532 1532 1532 1532 1532 1532 1531 1531 1530 1530 1529 1528 1527 1526 1525 1524 1523
1508 1510 1512 1513 1514 1515 1517 1518 1519 1520 1521 1522 1524 1525 1526 1527 1527 1528 1529 1529 1530 1530 1531 1531 1531 1531 1531 1531 1531 1531 1531 1531 1531 1530 1529 1529 1528 1527 1526 1525 1524 1522 1521
1508 1509 1511 1512 1513 1515 1516 1517 1518 1519 1520 1521 1522 1524 1524 1525 1526 1526 1527 1528 1528 1529 1530 1530 1530 1530 1530 1530 1530 1530 1530 1530 1530 1529 1529 1528 1527 1526 1525 1523 1522 1520 1519
1507 1508 1510 1511 1512 1514 1515 1516 1516 1517 1518 1520 1521 1522 1523 1524 1524 1525 1525 1526 1527 1527 1528 1528 1528 1528 1528 1528 1528 1529 1529 1529 1529 1528 1527 1527 1526 1524 1523 1522 1520 1518 1517
1506 1507 1508 1510 1511 1512 1513 1514 1515 1516 1517 1518 1520 1521 1521 1522 1523 1523 1524 1525 1525 1526 1526 1527 1527 1527 1527 1527 1527 1527 1527 1528 1527 1527 1526 1525 1524 1523 1522 1520 1518 1517 1515
1506 1507 1507 1509 1510 1511 1512 1513 1514 1515 1516 1517 1518 1518 1519 1520 1521 1522 1522 1523 1524 1524 1525 1525 1526 1526 1526 1526 1526 1526 1526 1526 1526 1525 1525 1524 1523 1522 1520 1518 1517 1515 1513
1504 1505 1506 1507 1508 1509 1510 1511 1512 1513 1514 1516 1516 1516 1517 1518 1519 1520 1521 1521 1522 1523 1523 1524 1524 1525 1524 1524 1524 1524 1524 1524 1524 1524 1523 1522 1522 1520 1518 1517 1515 1513 1511
1503 1504 1505 1506 1507 1508 1509 1510 1510 1512 1513 1514 1515 1515 1516 1517 1517 1518 1518 1519 1520 1521 1521 1522 1522 1522 1522 1522 1522 1522 1522 1523 1522 1522 1521 1521 1520 1518 1517 1515 1513 1511 1509
1501 1502 1504 1505 1506 1507 1508 1508 1509 1510 1511 1512 1513 1514 1514 1515 1516 1516 1516 1517 1518 1518 1519 1520 1520 1520 1520 1521 1521 1521 1521 1521 1520 1520 1519 1519 1518 1516 1515 1513 1511 1509 1507
1500 1501 1502 1503 1504 1505 1506 1506 1507 1508 1509 1509 1511 1512 1513 1513 1514 1514 1515 1516 1516 1516 1517 1518 1518 1519 1519 1519 1519 1520 1520 1519 1519 1517 1517 1516 1516 1514 1513 1511 1509 1507 1505
1499 1500 1501 1502 1503 1504 1504 1505 1506 1507 1507 1508 1509 1510 1511 1512 1512 1512 1513 1513 1514 1515 1515 1516 1516 1517 1518 1518 1517 1517 1517 1518 1517 1516 1514 1513 1512 1512 1510 1509 1507 1505 1503
1498 1499 1500 1500 1501 1502 1503 1503 1504 1505 1506 1507 1507 1508 1509 1509 1510 1510 1511 1511 1512 1513 1513 1514 1514 1515 1515 1516 1516 1516 1515 1515 1515 1514 1512 1510 1509 1508 1507 1506 1504 1502 1500